Home   Weather   Township of Fairfield   Past weeks
Flag for USA

Past Weather in Township of Fairfield, Ohio, USA — Yesterday and Last 2 Weeks

Now
34 °F

Scattered clouds.


Feels Like: 30 °F
Forecast: 38 / 25 °F
Wind: 5 mph from South

Location: Akron-Canton Regional Airport

Current Time: Dec 7, 2019 at 5:56:24 pm

Latest Report: Dec 7, 2019 at 4:51 pm


Visibility: 10 mi

Pressure: 30.42 "Hg

Humidity: 59%

Dew Point: 21 °F

Location of Township of FairfieldLocation

Past Weather in Township of Fairfield — Graph

°F

Township of Fairfield Temperature Yesterday

Maximum temperature yesterday: 47 °F (at 11:21 am)
Minimum temperature yesterday: 29 °F (at 11:51 pm)
Average temperature yesterday: 38 °F

High & Low Weather Summary for the Past Weeks

 TemperatureHumidityPressure
High58 °F (Nov 27, 12:51 pm)100% (Dec 1, 8:51 am)30.47 "Hg (Dec 1, 8:51 am)
Low23 °F (Dec 7, 5:51 am)51% (Dec 1, 1:51 pm)29.36 "Hg (Dec 1, 1:51 pm)
Average38 °F80%29.88 "Hg
* Reported Nov 22 3:51 pm — Dec 7 3:51 pm, Township of Fairfield. Weather by CustomWeather, © 2019

Note: Actual official high and low records may vary slightly from our data, if they occured in-between our weather recording intervals... More about our weather records

Township of Fairfield Weather History for the Previous 24 Hours

Scroll right to see more
 ConditionsComfort  
Time TempWeatherWind HumidityBarometerVisibility
3:51 pm
Sat, Dec 7
37 °FPassing clouds.7 mph52%30.42 "Hg10 mi
2:51 pm37 °FPassing clouds.5 mph54%30.42 "Hg10 mi
1:51 pm37 °FPassing clouds.6 mph57%30.42 "Hg10 mi
12:51 pm35 °FPassing clouds.N/A61%30.44 "Hg10 mi
12:24 pm34 °FPassing clouds.6 mph64%30.40 "Hg10 mi
11:51 am33 °FPartly sunny.7 mph66%30.45 "Hg10 mi
10:51 am33 °FScattered clouds.6 mph72%30.47 "Hg10 mi
9:51 am29 °FOvercast.5 mph89%30.46 "Hg10 mi
8:51 am27 °FOvercast.3 mph89%30.45 "Hg10 mi
8:33 am26 °FPartly sunny.3 mph84%30.40 "Hg10 mi
7:51 am23 °FPassing clouds.No wind88%30.42 "Hg10 mi
6:51 am24 °FPassing clouds.3 mph84%30.40 "Hg10 mi
5:51 am23 °FPassing clouds.No wind88%30.39 "Hg10 mi
4:51 am25 °FClear.No wind85%30.37 "Hg10 mi
3:51 am26 °FClear.No wind77%30.35 "Hg10 mi
2:51 am27 °FPassing clouds.No wind81%30.36 "Hg10 mi
1:51 am29 °FClear.3 mph75%30.34 "Hg10 mi
12:51 am29 °FClear.6 mph79%30.34 "Hg10 mi
11:51 pm
Fri, Dec 6
29 °FPassing clouds.6 mph79%30.32 "Hg10 mi
10:51 pm30 °FPassing clouds.3 mph75%30.31 "Hg10 mi
9:51 pm32 °FPassing clouds.5 mph73%30.30 "Hg10 mi
8:51 pm31 °FPassing clouds.6 mph73%30.28 "Hg10 mi
7:51 pm31 °FPassing clouds.7 mph76%30.28 "Hg10 mi
6:51 pm35 °FPartly cloudy.9 mph70%30.25 "Hg10 mi
5:51 pm36 °FPassing clouds.12 mph67%30.24 "Hg10 mi
Weather by CustomWeather, © 2019

See weather overview

Advertising